Teterboro, NJ

6:11 AM EST on December 03, 2016 (GMT -0500)
Teterboro

Weather History for KTEB - January, 2012

Change the Weather History Date:

Thursday, January 12, 2012

  Actual Average Record
Temperature  
Mean Temperature 44 °F -  
Max Temperature 46 °F 35 °F 70 °F (2008)
Min Temperature 42 °F 22 °F 15 °F (1997)
Degree Days  
Heating Degree Days 21    
Moisture  
Dew Point 41 °F    
Average Humidity 90    
Maximum Humidity 100    
Minimum Humidity 81    
Precipitation  
Precipitation 0.83 in - - ()
Sea Level Pressure  
Sea Level Pressure 29.55 in    
Wind  
Wind Speed 10 mph (NE)    
Max Wind Speed 22 mph    
Max Gust Speed 41 mph    
Visibility 4 miles    
Events Rain    
Averages and records for this station are not official NWS values.
T = Trace of Precipitation, MM = Missing Value Source: NWS Daily Summary

Daily Weather History Graph

Daily Weather History Graph

Search for Another Location

Airport or City:

Trip Planner

Search our weather history database for the weather conditions in past years. The results will help you decide how hot, cold, wet, or windy it might be!

Date:

Astronomy

Jan. 12, 2012 Rise Set
Actual Time 7:19 AM EST 4:49 PM EST
Civil Twilight 6:49 AM EST 5:19 PM EST
Nautical Twilight 6:15 AM EST 5:53 PM EST
Astronomical Twilight 5:42 AM EST 6:26 PM EST
Moon 8:53 PM EST (1/12) 9:00 AM EST (1/12)
Length of Visible Light 10h 30m
Length of Day
9h 29m
Waning Gibbous, 87% of the Moon is Illuminated
Jan 12
Waning Gibbous
Jan 16
Last Quarter
Jan 23
New
Jan 30
First Quarter
Feb 7
Full

Hourly Weather History & Observations

Time (EST) Temp. Windchill Dew Point Humidity Pressure Visibility Wind Dir Wind Speed Gust Speed Precip Events Conditions
12:03 AM 42.8 °F 36.6 °F 37.4 °F 81% 29.82 in 7.0 mi ENE 11.5 mph 18.4 mph 0.02 in Rain Rain
12:21 AM 42.8 °F 37.0 °F 37.4 °F 81% 29.81 in 9.0 mi ENE 10.4 mph - 0.05 in Rain Rain
12:51 AM 43.0 °F 37.2 °F 37.9 °F 82% 29.80 in 9.0 mi ENE 10.4 mph 17.3 mph 0.10 in Rain Light Rain
1:29 AM 42.8 °F 37.0 °F 37.4 °F 81% 29.78 in 7.0 mi ENE 10.4 mph 20.7 mph 0.06 in Rain Light Rain
1:51 AM 44.1 °F 37.7 °F 39.0 °F 82% 29.76 in 8.0 mi ENE 12.7 mph 23.0 mph 0.07 in Rain Light Rain
2:51 AM 44.1 °F 36.8 °F 41.0 °F 89% 29.69 in 6.0 mi ENE 16.1 mph 26.5 mph 0.06 in Rain Light Rain
3:51 AM 45.0 °F 37.1 °F 45.0 °F 100% 29.64 in 3.0 mi East 19.6 mph 26.5 mph 0.11 in Rain Heavy Rain
4:51 AM 45.0 °F 39.3 °F 43.0 °F 93% 29.58 in 5.0 mi ENE 11.5 mph 23.0 mph 0.11 in Rain Light Rain
5:51 AM 46.0 °F 38.0 °F 43.0 °F 89% 29.53 in 4.0 mi ENE 21.9 mph 32.2 mph 0.09 in Rain Rain
6:26 AM 46.4 °F 39.2 °F 42.8 °F 87% 29.52 in 5.0 mi ENE 18.4 mph 33.4 mph 0.05 in Rain Light Rain
6:51 AM 46.0 °F 39.0 °F 43.0 °F 89% 29.50 in 5.0 mi ENE 17.3 mph 41.4 mph 0.07 in Rain Light Rain
7:51 AM 45.0 °F 36.9 °F 42.1 °F 90% 29.49 in 2.5 mi NE 20.7 mph 28.8 mph 0.13 in Rain Heavy Rain
8:18 AM 44.6 °F 36.9 °F 42.8 °F 93% 29.48 in 4.0 mi ENE 18.4 mph 32.2 mph 0.03 in Rain Light Rain
8:51 AM 45.0 °F 38.5 °F 41.0 °F 86% 29.49 in 5.0 mi NE 13.8 mph 36.8 mph 0.03 in   Overcast
9:51 AM 45.0 °F 40.1 °F 41.0 °F 86% 29.45 in 6.0 mi North 9.2 mph - 0.06 in Rain Light Rain
10:51 AM 44.1 °F 39.0 °F 42.1 °F 93% 29.47 in 6.0 mi NW 9.2 mph - 0.00 in   Overcast
11:51 AM 44.1 °F 39.0 °F 39.9 °F 85% 29.47 in 6.0 mi NNW 9.2 mph - N/A   Overcast
11:58 AM 44.6 °F 40.7 °F 41.0 °F 87% 29.47 in 2.0 mi North 6.9 mph - 0.00 in Rain Light Rain
12:51 PM 43.0 °F 39.5 °F 41.0 °F 93% 29.46 in 4.0 mi North 5.8 mph - 0.00 in   Overcast
1:42 PM 42.8 °F 37.0 °F 39.2 °F 87% 29.46 in 5.0 mi NNE 10.4 mph - N/A   Overcast
1:51 PM 43.0 °F 37.2 °F 39.9 °F 89% 29.47 in 5.0 mi North 10.4 mph - N/A   Overcast
1:58 PM 42.8 °F 37.5 °F 39.2 °F 87% 29.46 in 7.0 mi North 9.2 mph - N/A   Overcast
2:25 PM 44.6 °F 40.7 °F 39.2 °F 81% 29.47 in 6.0 mi NNE 6.9 mph - N/A   Haze
2:51 PM 44.1 °F 40.8 °F 39.0 °F 82% 29.47 in 10.0 mi North 5.8 mph - N/A   Overcast
3:47 PM 42.8 °F 40.1 °F 39.2 °F 87% 29.50 in 3.0 mi NNE 4.6 mph - 0.00 in   Light Drizzle
3:51 PM 43.0 °F 40.3 °F 39.9 °F 89% 29.51 in 2.5 mi North 4.6 mph - 0.00 in   Light Drizzle
4:04 PM 42.8 °F 41.1 °F 39.2 °F 87% 29.51 in 2.5 mi North 3.5 mph - 0.00 in   Light Drizzle
4:23 PM 42.8 °F - 41.0 °F 93% 29.53 in 3.0 mi Calm Calm - 0.00 in   Light Drizzle
4:30 PM 42.8 °F - 41.0 °F 93% 29.53 in 3.0 mi Calm Calm - 0.00 in   Light Drizzle
4:38 PM 42.8 °F 40.1 °F 41.0 °F 93% 29.53 in 2.0 mi NE 4.6 mph - 0.00 in   Light Drizzle
4:51 PM 42.1 °F 39.2 °F 41.0 °F 96% 29.54 in 2.5 mi North 4.6 mph - 0.00 in   Light Drizzle
5:51 PM 42.1 °F 40.2 °F 41.0 °F 96% 29.55 in 2.5 mi NNE 3.5 mph - 0.00 in   Light Drizzle
6:29 PM 42.8 °F 41.1 °F 41.0 °F 93% 29.55 in 3.0 mi NE 3.5 mph - 0.00 in   Overcast
6:36 PM 42.8 °F - 41.0 °F 93% 29.55 in 3.0 mi Calm Calm - 0.00 in   Overcast
6:51 PM 42.1 °F - 41.0 °F 96% 29.55 in 4.0 mi Calm Calm - 0.00 in   Overcast
6:58 PM 42.8 °F - 41.0 °F 93% 29.55 in 4.0 mi Calm Calm - N/A   Overcast
7:51 PM 43.0 °F - 41.0 °F 93% 29.55 in 5.0 mi Calm Calm - N/A   Overcast
8:51 PM 43.0 °F 41.3 °F 41.0 °F 93% 29.55 in 5.0 mi NE 3.5 mph - N/A   Overcast
9:51 PM 43.0 °F 41.3 °F 41.0 °F 93% 29.54 in 3.0 mi East 3.5 mph - N/A   Overcast
10:30 PM 42.8 °F 40.1 °F 42.8 °F 100% 29.53 in 2.5 mi East 4.6 mph - N/A   Overcast
10:51 PM 43.0 °F 40.3 °F 42.1 °F 97% 29.52 in 1.8 mi East 4.6 mph - 0.00 in   Light Drizzle
11:51 PM 42.1 °F 38.4 °F 42.1 °F 100% 29.49 in 1.0 mi East 5.8 mph - 0.00 in   Overcast
11:58 PM 42.8 °F 39.3 °F 42.8 °F 100% 29.49 in 2.5 mi East 5.8 mph - N/A   Overcast